GSAT0227 (GALILEO 30)

Last updated on Sun Jun 21 2026 00:02:55 GMT+0000 (Coordinated Universal Time)

1 59600U 24079C 26170.34920996 -.00000013 00000+0 00000+0 0 9993 2 59600 55.1161 101.0181 0002201 52.0058 307.9926 1.70473950 13408
UTC large
Height (km)
Speed (km/s)
/
Latitude / Longitude
Inclination (degrees)
Orbital Period (minutes)
Azimuth
Elevation
Range (km)
Doppler Factor

Next 0 passes for location: London (51.5072 / 0.1276)

No passes found over London.
GSAT0227 (GALILEO 30)